RH
21 28 24 23 17 21 28 39 64 42 21 34 30 32 27 31 25 17 16 19 18 35 29 43 56 44 53 60 78 85 90 95 80 96 67 57 65 66 65 78 91 92 96 91
14 17 26 20 14 9 9 17 15 16 14 27 42 45 32 30 26 23 25 26 22 19 47 41 57 56 56 73 81 88 90 52 80 79 61 75 64 78 93 98 100 100 99 96
18 15 11 9 8 11 12 13 8 10 14 16 27 31 35 37 38 38 36 32 30 30 25 18 21 61 68 75 69 55 58 67 74 77 70 90 93 98 100 99 89 94 100 100
9 9 8 9 12 16 17 11 11 16 18 25 35 44 46 41 36 33 33 29 19 15 13 12 12 15 21 23 32 62 72 61 55 83 100 100 100 94 86 95 100 100 100 100
10 11 17 24 26 24 20 16 14 18 27 34 35 37 36 33 28 25 18 13 14 12 10 9 10 14 32 45 48 45 50 76 96 100 100 99 93 100 100 100 100 100 88 85
30 32 49 48 34 25 26 23 23 28 35 38 34 30 26 24 16 14 14 13 10 8 9 14 30 45 46 40 44 65 81 94 100 98 93 94 87 74 65 77 39 37 57 100
20 28 22 26 30 33 32 28 36 42 38 36 34 22 12 13 13 12 9 7 8 10 15 29 42 41 34 47 74 92 98 98 100 97 76 47 17 4 8 11 12 24 30 30
22 27 23 29 30 30 34 33 37 34 22 13 13 12 12 11 9 8 8 8 11 18 29 39 39 30 38 72 100 100 100 97 76 43 14 5 4 4 5 7 11 18 22 23
28 26 23 25 31 32 25 18 14 14 14 14 12 10 9 9 9 9 11 15 26 40 42 36 31 49 85 100 100 97 82 57 27 6 4 4 5 6 7 9 13 24 27 25
24 26 27 23 13 14 15 15 13 13 12 12 11 11 11 11 11 13 17 30 41 41 32 40 74 93 98 95 87 68 44 21 6 4 5 5 6 7 9 18 29 35 33 34
12 12 12 13 14 16 15 14 14 13 14 13 14 15 13 13 13 19 34 42 38 34 60 81 92 94 88 81 62 37 14 6 5 5 6 7 8 12 23 38 51 51 49 47
16 18 17 16 15 15 14 14 13 14 16 20 19 16 15 17 24 37 42 38 41 66 82 92 90 84 75 52 23 9 6 5 6 6 7 9 14 23 44 59 63 60 53 43
22 20 19 18 17 17 16 18 19 23 30 28 21 18 21 34 44 48 42 48 69 84 94 93 85 71 48 22 10 6 6 6 8 9 12 20 32 48 59 64 62 55 47 30
26 23 22 22 20 21 23 24 27 40 41 29 24 30 43 54 54 45 54 74 87 97 95 87 70 47 25 12 7 6 7 8 9 10 11 16 29 55 73 69 61 47 32 19
26 26 25 25 24 24 26 35 48 48 34 31 35 50 62 55 43 53 77 89 98 95 87 68 43 19 9 7 7 8 9 11 12 13 21 48 73 78 75 69 52 34 18 18
28 29 29 32 36 46 62 66 51 36 37 43 60 63 46 41 61 87 97 100 97 87 66 39 16 8 8 8 8 10 12 12 15 24 49 72 78 72 57 42 24 17 19 22
33 32 39 50 67 75 67 53 42 47 64 69 55 44 52 85 96 100 100 94 84 58 30 12 8 8 8 9 10 12 13 16 26 41 56 53 42 32 20 17 18 20 26 27
52 54 65 79 75 62 53 51 65 76 66 48 52 83 98 100 100 97 92 79 52 23 10 8 9 9 10 12 13 14 18 26 36 36 32 22 16 16 17 18 21 25 25 20
78 82 80 71 61 57 70 83 75 53 55 79 98 100 100 100 95 91 69 31 13 9 9 9 11 12 13 14 17 23 28 33 29 19 16 15 14 12 14 19 22 23 22 21
91 85 75 63 77 93 81 59 61 84 100 100 100 100 100 94 87 56 22 11 10 10 10 11 13 14 16 20 27 32 34 22 16 15 15 12 9 10 13 17 21 24 25 25
79 73 89 99 77 61 67 86 100 100 100 100 100 99 97 91 56 18 11 10 11 11 13 14 16 21 26 37 37 33 17 18 14 15 11 10 10 9 11 13 15 18 21 22
99 88 74 80 95 100 100 100 100 100 100 100 100 98 93 48 18 12 11 12 13 15 16 20 29 38 45 40 26 18 18 16 18 12 10 10 8 9 10 11 13 16 19 20
97 98 100 100 100 100 100 100 100 100 100 100 99 82 33 14 12 12 14 16 17 20 28 40 47 48 39 22 21 18 19 22 13 11 10 8 7 6 7 9 11 14 19 23
98 100 100 100 100 100 100 100 100 100 100 85 46 16 14 14 15 16 17 18 26 45 51 50 50 36 24 26 22 25 25 14 12 11 10 9 7 7 9 10 9 10 15 22
100 100 100 100 100 100 100 100 96 70 30 15 14 14 14 16 18 20 27 41 53 54 56 52 33 26 33 29 27 32 17 13 11 11 11 10 9 11 13 13 11 13 15 19
100 100 100 100 100 98 85 51 22 16 15 15 15 16 17 21 33 47 54 55 59 60 48 33 31 37 38 31 30 30 17 14 12 12 13 12 13 16 19 21 27 32 29 25
100 100 99 88 55 26 18 16 15 16 17 18 19 25 40 61 66 61 64 69 60 46 32 34 40 40 40 32 30 26 19 17 14 14 14 14 17 22 27 34 45 54 57 50
Wind_Speed
21 20 23 24 26 23 25 24 24 19 20 19 24 30 29 29 31 27 26 28 31 32 35 36 36 41 42 40 41 45 45 49 55 48 56 55 57 59 60 61 61 62 66 70
24 23 25 27 28 26 22 23 26 26 23 21 22 28 28 28 29 30 32 34 36 38 38 40 41 43 42 43 41 44 45 53 51 50 56 57 59 59 58 60 62 65 74 76
26 25 27 30 26 30 30 30 28 27 26 25 24 25 25 27 28 31 34 37 39 42 45 45 46 39 41 36 41 48 50 49 51 54 57 58 58 58 59 64 67 67 73 80
27 27 32 29 30 30 28 27 26 26 24 24 23 25 26 28 31 34 36 38 40 42 44 47 48 48 47 48 49 47 49 53 54 55 56 58 59 63 67 71 70 73 76 80
30 30 31 28 30 26 24 26 25 24 23 22 24 26 29 31 33 35 36 39 41 44 46 48 50 49 47 48 50 50 52 52 54 56 57 60 62 64 70 73 75 79 80 79
31 30 31 24 28 27 24 27 23 22 22 24 27 30 31 33 34 37 39 41 44 47 48 46 44 46 48 48 49 50 51 52 54 57 62 64 65 68 71 72 76 78 77 76
31 31 30 24 25 27 25 21 19 22 25 27 30 31 32 34 36 39 42 45 47 46 46 46 48 48 48 48 49 51 52 54 57 59 65 66 66 68 71 74 77 77 75 68
31 30 29 23 24 22 19 21 21 24 26 28 30 32 34 37 39 42 44 46 47 48 49 50 50 50 51 51 50 52 55 59 62 62 63 66 68 70 72 74 75 71 67 63
29 28 24 22 20 19 17 20 23 26 28 30 33 35 37 41 43 45 45 46 47 47 49 50 50 51 51 50 52 57 60 61 61 62 65 68 70 72 74 74 73 68 64 62
29 27 25 22 18 18 21 24 26 28 31 33 36 38 41 43 45 46 47 47 48 49 50 50 51 51 51 54 58 60 61 62 63 65 68 71 73 74 73 70 68 67 65 66
26 24 22 22 23 24 26 28 30 33 35 37 39 42 44 46 47 47 48 49 50 50 51 51 51 53 56 59 60 61 62 63 66 69 71 73 74 73 70 67 68 67 69 71
25 25 25 26 28 29 30 33 35 37 39 41 43 45 47 47 48 48 50 51 51 52 52 53 55 58 60 59 59 61 64 67 70 72 74 75 74 71 68 67 68 71 74 76
27 28 29 30 32 34 36 38 40 41 42 44 47 48 48 49 49 50 52 52 52 53 54 56 59 60 59 60 62 65 68 71 73 74 74 74 72 71 70 66 69 72 76 78
30 31 32 34 36 38 40 42 43 44 46 48 49 49 50 50 52 52 51 52 54 54 57 59 61 60 61 64 67 70 72 75 77 78 80 79 77 74 73 73 74 75 77 77
33 34 35 37 40 43 44 45 46 47 49 49 50 51 52 53 52 52 53 54 56 58 60 61 61 61 64 67 71 74 76 77 79 80 79 76 74 74 75 77 80 80 77 70
37 38 39 41 44 45 46 47 49 49 50 51 51 53 53 52 52 53 55 57 60 62 61 61 62 65 68 71 74 76 78 80 81 80 78 76 77 79 80 82 80 76 68 61
41 42 43 45 46 47 49 51 51 51 51 52 53 53 51 51 53 55 58 61 62 61 60 62 65 69 73 76 79 81 82 81 81 78 77 79 82 84 83 79 70 65 58 54
44 45 46 47 48 51 52 51 51 51 52 53 51 50 51 52 56 60 63 62 61 61 63 67 70 74 77 79 81 83 83 81 78 79 81 83 83 81 77 69 62 58 53 50
45 46 48 49 50 50 50 50 52 52 51 50 50 50 52 57 63 63 61 60 61 64 67 70 73 76 79 81 82 81 78 77 80 83 81 79 77 70 61 55 52 49 47 45
47 48 49 48 48 49 51 52 51 51 51 52 52 54 60 65 64 61 60 62 65 68 71 74 78 80 81 81 78 76 77 82 79 78 75 68 56 52 50 48 46 46 46 45
44 46 47 48 50 51 51 52 51 53 53 53 58 62 66 66 62 61 64 66 68 72 75 77 78 79 77 74 75 79 80 77 76 73 61 53 52 53 52 49 45 42 42 43
44 46 48 50 51 51 49 49 52 54 58 62 64 66 65 61 62 64 67 69 72 74 76 77 75 73 72 74 79 77 77 73 70 61 53 53 53 52 52 52 49 46 44 43
48 50 49 47 46 47 49 52 56 61 65 66 64 62 61 63 65 67 70 72 73 74 73 70 69 70 75 78 75 75 71 67 59 53 52 53 53 55 56 53 49 46 45 44
43 42 42 45 47 51 55 60 63 65 63 60 60 61 63 65 67 70 72 73 71 67 67 67 69 74 75 73 72 69 66 58 53 51 52 54 57 60 59 54 47 43 41 41
43 45 48 52 55 59 63 63 60 57 57 60 62 64 67 69 71 71 69 66 64 64 65 69 73 72 70 70 66 65 59 54 51 51 53 56 59 59 56 51 44 38 35 34
50 53 57 60 61 59 56 55 56 59 61 63 66 68 70 70 67 64 63 62 62 65 70 72 70 69 69 68 65 61 56 53 51 51 53 57 58 54 49 44 39 34 30 27
57 57 55 54 53 54 56 58 60 62 65 67 68 67 64 61 60 60 60 63 67 71 71 69 70 72 71 67 62 58 54 52 51 51 53 55 53 47 41 37 35 33 30 26
Wind_Direction
248 237 239 247 253 249 260 260 265 275 271 257 250 251 255 264 274 284 289 295 298 297 302 302 295 302 301 297 298 290 286 286 291 289 299 302 301 301 301 302 303 303 303 303
244 241 243 249 258 264 264 263 265 267 258 253 254 265 268 271 280 292 295 295 298 303 301 299 297 301 299 295 290 284 282 293 292 293 300 299 301 303 303 303 303 301 301 303
247 250 252 253 258 264 261 257 265 267 269 268 271 275 278 284 288 288 289 294 297 297 297 298 298 293 294 279 279 289 293 294 297 298 300 301 302 302 303 302 303 299 300 299
250 254 258 266 260 261 262 263 260 261 261 266 269 273 274 273 276 282 286 289 291 294 297 297 296 295 295 296 297 298 296 296 298 300 301 302 304 304 306 307 304 301 300 300
255 257 261 262 264 263 259 259 258 258 259 262 267 271 274 278 282 286 289 291 294 294 293 294 297 300 302 301 300 299 299 299 301 303 302 303 306 300 299 299 296 298 302 303
254 258 263 257 263 266 258 257 260 265 269 271 272 274 278 283 287 290 292 291 291 294 298 300 300 299 299 300 299 299 300 301 301 303 305 305 304 301 301 301 302 304 306 304
255 260 264 265 256 258 259 266 259 258 264 268 270 276 281 283 286 286 288 293 296 297 298 300 302 302 302 303 303 303 304 304 304 302 303 304 304 305 305 304 306 305 307 310
253 262 266 260 256 260 263 260 261 262 264 268 273 278 283 286 289 292 294 297 299 302 304 304 304 305 306 306 304 304 303 304 304 303 304 304 306 307 307 306 307 308 309 311
251 254 263 257 255 256 258 258 263 269 273 278 281 284 288 292 295 299 300 302 303 303 302 303 304 304 304 303 303 303 304 303 304 305 305 307 309 309 309 308 308 309 311 313
252 254 255 256 251 256 263 268 273 279 283 286 290 293 297 298 299 301 302 302 302 302 302 303 304 304 304 304 305 304 304 306 307 307 309 311 311 309 309 309 309 310 311 312
248 251 252 256 261 265 269 276 283 286 290 292 294 297 299 300 301 302 301 301 301 301 303 304 304 304 305 305 306 306 307 307 307 309 310 310 310 310 311 310 310 310 310 310
248 249 257 263 267 273 278 281 286 292 295 297 298 299 300 300 301 301 301 300 301 303 303 303 305 306 307 306 305 306 307 308 309 310 310 310 310 309 309 309 309 310 311 311
259 265 270 275 280 283 287 290 291 294 297 298 300 301 301 301 301 300 299 300 301 302 303 305 306 306 306 304 304 306 307 308 310 310 310 309 308 308 308 307 307 309 309 309
263 268 273 278 282 285 287 290 295 296 297 299 301 300 300 299 298 298 299 300 301 303 305 306 306 304 302 304 305 307 308 309 310 310 310 309 308 307 307 307 307 308 307 307
268 272 277 280 283 285 289 292 293 294 297 298 298 298 297 297 297 298 299 301 303 305 305 305 302 301 303 304 306 308 310 310 310 309 308 308 306 306 305 305 306 306 306 304
273 277 280 282 284 287 289 289 291 294 295 295 295 294 295 296 297 300 302 303 304 304 303 302 301 303 304 306 308 309 309 309 309 308 308 306 305 305 305 305 305 304 304 302
275 278 280 283 284 286 287 289 293 293 293 293 293 295 296 299 300 301 302 303 303 302 301 301 302 303 305 307 309 309 310 309 308 308 308 307 306 306 305 304 304 302 301 300
275 278 280 282 284 285 288 290 290 292 292 293 294 296 298 299 301 302 304 304 302 301 302 303 303 305 307 309 310 310 310 310 310 309 309 309 308 307 306 304 301 298 298 297
276 277 278 281 284 286 286 289 290 290 290 293 294 293 294 300 303 304 303 301 301 301 302 303 306 308 309 310 311 311 311 311 312 312 312 312 311 310 310 307 302 298 297 295
275 278 281 282 283 285 287 287 288 290 290 289 288 290 296 303 304 302 300 299 300 302 303 305 307 309 310 311 312 312 313 313 314 314 314 315 317 319 320 315 309 302 297 294
276 278 278 281 284 285 286 288 286 285 284 285 286 289 301 303 300 299 300 301 302 304 306 308 309 310 312 312 313 314 315 315 316 316 315 314 315 316 314 311 307 303 298 294
276 279 282 284 285 285 285 281 279 279 280 283 289 297 300 299 298 298 300 302 305 307 308 309 311 312 312 314 316 317 317 317 316 315 314 314 315 315 314 309 302 294 288 285
281 282 283 283 284 284 280 278 278 280 283 291 296 298 297 297 298 301 303 305 307 308 309 310 312 314 315 318 318 318 318 318 316 314 315 315 317 318 317 314 306 294 283 277
281 282 282 281 280 279 279 279 282 287 293 296 296 296 297 299 300 302 304 306 308 309 311 313 315 317 319 319 320 319 320 318 316 316 317 319 321 322 322 319 313 300 287 275
283 282 281 280 280 279 282 288 292 293 293 293 295 296 298 301 303 306 307 308 309 311 313 314 316 318 319 321 320 320 319 317 315 318 320 324 325 326 325 324 319 311 301 286
278 276 277 280 284 288 290 290 290 292 294 296 298 300 302 304 305 306 307 309 310 312 313 314 316 317 319 320 319 319 318 316 315 318 321 325 327 326 326 327 327 325 317 303
280 283 285 287 288 288 289 291 293 295 297 298 300 302 303 304 305 306 307 309 311 312 313 314 315 316 317 317 316 316 315 316 316 318 321 325 326 325 327 329 331 333 335 328